Latest METARs, TAFs and NOTAMs for LCLK


---------------------------------------------------------------------------
	(OBSERVATIONS)
LCLK 280800Z 19012KT 170V230 CAVOK 25/10 Q1014 NOSIG=
LCLK 280730Z 20012KT CAVOK 24/10 Q1014 NOSIG=
LCLK 280700Z 19011KT CAVOK 24/10 Q1014 NOSIG=
LCLK 280630Z 21010KT CAVOK 24/08 Q1014 NOSIG=
LCLK 280600Z 21008KT CAVOK 24/09 Q1013 NOSIG=
LCLK 280530Z 22007KT CAVOK 23/07 Q1013 NOSIG=
---------------------------------------------------------------------------
	(FC)
Sorry, FC For LCLK Not Found
---------------------------------------------------------------------------
	(TERMINAL AREA FORECAST)
LCLK 280530Z 2806/2906 22010KT CAVOK
    BECMG 2817/2820 33006KT=
---------------------------------------------------------------------------
	(NOTAMS)


LCLK A0016/10 THERE ARE FREQUENT REPORTS OF LASER LIGHTS DIRECTED
    AT ACFT MOSTLY FROM THE FOLLOWING AREAS: 1.ON ARRIVALS FROM
    NW WITHIN OF 20NM FROM AD 2.ON LETDOWN PROCEDURES RWY22 AIRCREW
    SHALL BE VIGILANT TO SUCH EVENTS AND REPORT THEM TO ATC PASSING
    WHERE POSSIBLE INFO AS TO THE LOCATION. 12 JAN 09:27 2010
    UNTIL PERM. CREATED: 12 JAN 09:37 2010

LCLK A0018/16 REF AIP SUP 001/2016 HAND AMEND ADLAS1V APPROACH
    PROCEDURE TO READ ADLAS1W AND SOBOS1V APPROACH PROCEDURE
    TO READ SOBOS1W. 11 JAN 13:36 2016 UNTIL PERM. CREATED: 11
    JAN 13:38 2016

LCLK A0026/16 REF AIRAC AIP SUP 001/2016 EFF 04 FEB 16 HAND AMEND
    BOSIS RNAV VISUAL RWY22 TABLE LK508 COORDINATES TO READ 345343.73N
    0334704.69E. 15 JAN 13:09 2016 UNTIL PERM. CREATED: 15 JAN
    13:11 2016

LCLK A0110/12 NEW HELIPAD FOR CYPRUS POLICE USE ONLY ESTABLISHED
    250 METERS NORTH OF THE ATC TOWER ENCLOSED BY THE FOLLOWING
    COORDINATES: 3452.502N03337.012E 3452.528N03337.013E 3452.518N03337.185E
    3452.465N03337.118E HOURS OF OPERATION: H24. 08 FEB 14:53
    2012 UNTIL PERM. CREATED: 08 FEB 15:02 2012

LCLK A0211/17 OBSTACLE ERECTED TYPE: CRANE COORDINATES: 345406.34N0333812.87E
    HEIGHT: 48M AGL ELEVATION AT TOP: 66M AMSL MARKED,LIGHTED.
    17 FEB 10:59 2017 UNTIL PERM. CREATED: 17 FEB 11:03 2017

LCLK A0497/17 TRIGGER NOTAM - PERM AIRAC AIP AMDT 001/17 WEF
    25 MAY 2017 - AIRCRAFT PARKING/DOCKING CHART - ICAO APRON
    1 - VFR ROUTES AND TRAINING AREAS 02 CHART HAS BEEN WITHDRAWN
    FROM SECTION LCLK AD 2.24. 25 MAY 00:00 2017 UNTIL 07 JUN
    23:59 2017. CREATED: 31 MAR 07:02 2017

LCLK A0523/17 IN CASE OF VISUAL DOCKING GUIDANCE SYSTEM FAILURE
    OR MARSHALLER UNAVAILABILITY ON STAND, AIRCRAFT SHALL HOLD
    BEFORE ENTERING THE STAND AND ADVISE AIR TRAFFIC CONTROL.
    06 APR 07:51 2017 UNTIL PERM. CREATED: 06 APR 07:51 2017

LCLK A0529/17 NEW AIS HEADQUARTERS CONTACT DETAILS POST: AERONAUTICAL
    INFORMATION SERVICE LARNAKA CONTROL TOWER LARNAKA INTL AIRPORT
    LARNAKA CYPRUS CY-1729 PHONE: +357 24802921 / 3 FAX: +357
    24304706 SITA: LCAAPYA AFS: LCNCZPZX EMAIL: LCAAIS(A)CYTANET.COM.CY
    REF AIP GEN 3.1.2. 07 APR 12:40 2017 UNTIL PERM. CREATED:
    07 APR 12:42 2017

LCLK A0557/17 VDGS ON CONTACT STANDS MAY NOT BE ACTIVATED TO
    ACCOMMODATE TRAINING FOR NEW AIRCRAFT MARSHALLERS. PILOTS
    ARE ASKED TO APPROACH THE STAND WITH CAUTION AND FOLLOW THE
    MARSHALLER'S INSTRUCTIONS. 18 APR 04:00 2017 UNTIL 28 APR
    20:59 2017. CREATED: 13 APR 13:32 2017

LCLK A0694/12 OBSTACLE ERECTED TYPE: ANTENNA COORDINATES: 345228.69N0333700.25E
    ELEVATION AT TOP: 39.5M AMSL MARKED AND LIGHTED (RED. 16
    AUG 18:42 2012 UNTIL PERM. CREATED: 16 AUG 18:46 2012

LCLK A0695/12 OBSTACLE ERECTED TYPE: WIND MEASUREMENT MAST COORDINATES:
    345227N 0333110E HEIGHT : 50M AGL ELAVATION AT TOP : 240M
    AMSL MARKED AND LIGHTED. 16 AUG 18:48 2012 UNTIL PERM. CREATED:
    16 AUG 18:50 2012

LCLK A0762/15 OBSTACLE ERECTED NAME: LC-0005CR TYPE: CRANE COORDINATES:
    345554.27N0333814.51E HEIGHT: 65.5M AGL ELEVATION AT TOP:
    71M AMSL MARKED AND LIGHTED. 24 JUN 07:35 2015 UNTIL PERM.
    CREATED: 24 JUN 07:40 2015

LCLK A0924/15 FOR FLIGHT PLANNING PURPOSES ALL ARRIVALS TO LCA
    ENTERING NICOSIA FIR VIA TOSKA, EVENO, TOMBI MUST ROUTE TO
    BONEK FOR THE BONEK1A ARRIVAL. ALL OTHER STARS AVAILABLE
    ONLY BY ATC. 31 JUL 00:01 2015 UNTIL PERM. CREATED: 30 JUL
    11:29 2015

LCLK A1180/14 OBSTACLE ERECTED TYPE: ANTENNA COORDINATES: 345330.64N0333816.55E
    HEIGHT:28.69M AGL ELEVATION AT TOP: 31.25M AMSL MARKED AND
    LIGHTED (RED. 13 NOV 05:00 2014 UNTIL PERM. CREATED: 11 NOV
    11:52 2014

LCLK A1197/14 FOR FLIGHT PLANNING PURPOSES ALL DEPARTURES LCA
    RWY22 EXITING NICOSIA FIR VIA TOSKA, EVENO, TOMBI MUST ROUTE:
    1. PAFOS 2B PHA DCT GENOS DCT TOSKA 2. PAFOS 2B PHA DCT GENOS
    DCT PEDER DCT EVENO 3. PAFOS 2B PHA DCT GENOS DCT PEDER A16/UA16
    TOMBI ALL OTHER SIDS ONLY AVAILABLE BY ATC. 13 NOV 13:58
    2014 UNTIL PERM. CREATED: 13 NOV 13:59 2014

LCLK A1235/14 A GROUP OF FOUR (4) CRANES ERECTED AT LARNAKA PORT
    AT THE FOLLOWING POSITIONS: 345542.50N0333839.08E HEIGHT
    47M AT THE TOP 49.3M AMSL NOT LIGHTED 345529.26N0333840.08E
    HEIGHT 84M AT THE TOP 86.3M AMSL LIGHTED 345525.08N0333830.27E
    HEIGHT 84M AT THE TOP 86.3M AMSL LIGHTED 345526.30N0333829.02E
    HEIGHT 50M AT THE TOP 52.3M AMSL LIGHTED. 26 NOV 11:46 2014
    UNTIL PERM. CREATED: 26 NOV 11:48 2014

LCLK A1511/16 VFR ROUTES AND TRAINING AREAS 02 CHART COMPLETELY
    WITHDRAWN. REF AIP AD.2 LCLK 24 VFR. 02 DEC 07:56 2016 UNTIL
    PERM. CREATED: 02 DEC 08:21 2016

---------------------------------------------------------------------------